Weather in Prosek

Russia / Nizhny Novgorod Oblast'     56°06′34″N   45°10′58″E
temp.,
°C
wind,
m/s
gust,
m/s
humid.,
%
clouds,
%
prec.,
mm/h
press.,
hPa
HPBL,
m
13 april, tue
tue1300:00+2ese499699 0.0 1035150
03:00+3se3999100 0.0 1034147
06:00+4se38100100 0.0 1033130
09:00+6se38100100 0.0 1033165
12:00+10sse479690 0.0 1032203
15:00+15sse497197 0.0 1030453
18:00+11sse497373 0.0 1029113
21:00+8s497241 0.0 1030102
14 april, wed
wed1400:00+7s3370100 0.0 102934
03:00+6s337180 0.0 102915
06:00+6sse337247 0.0 102825
09:00+12sse465618 0.0 1027246
12:00+16sse57435 0.0 1026669
15:00+18sse57390 0.0 10241019
18:00+15se36590 0.0 1023113
21:00+11sse37805 0.0 1023107
15 april, thu
thu1500:00+10sse34873 0.0 102262
03:00+9s22864 0.0 102112
06:00+9s22845 0.0 102111
09:00+14s236571 0.0 1020359
12:00+17ssw2250100 0.0 10191134
15:00+18ssw2243100 0.0 10181573
18:00+16sse005282 0.0 101811
21:00
16 april, fri
fri1600:00+11nnw116896 0.0 101810
03:00+8ne3895100 0.0 1019188
06:00+7ne499457 0.0 1020320
09:00+8ne688395 0.0 1021506
12:00+10ne677799 0.0 1021715
15:00+11ne676898 0.0 1022930
18:00+10ne6867100 0.0 1022711
21:00+6nne36815 0.0 1024137
17 april, sat
sat1700:00+4ne377977 0.0 1025183
03:00+2ne358077 0.0 1025113
06:00+2ne387969 0.0 1026217
09:00+7ne57535 0.0 1026645
12:00+10ne56405 0.0 10261623
15:00+11ne66375 0.0 10261874
18:00+9nne474875 0.0 1026317
21:00+5ne39645 0.0 1028231